Omaha Offutt, NE

12:49 PM CST on January 17, 2018 (GMT -0600)
Offutt Air Force Base

Weather History for KOFF - January, 2015

Change the Weather History Date:

Thursday, January 22, 2015

  Actual Average Record
Temperature  
Mean Temperature 28 °F -  
Max Temperature 38 °F 31 °F 57 °F (2002)
Min Temperature 19 °F 14 °F -4 °F (2003)
Degree Days  
Heating Degree Days 36    
Moisture  
Dew Point 22 °F    
Average Humidity 71    
Maximum Humidity 90    
Minimum Humidity 51    
Precipitation  
Precipitation 0.00 in - - ()
Sea Level Pressure  
Sea Level Pressure 30.45 in    
Wind  
Wind Speed 5 mph (WNW)    
Max Wind Speed 12 mph    
Max Gust Speed -    
Visibility 10 miles    
Events      
Averages and records for this station are not official NWS values.
T = Trace of Precipitation, MM = Missing Value Source: NWS Daily Summary

Daily Weather History Graph

Daily Weather History Graph

Search for Another Location

Airport or City:

Trip Planner

Search our weather history database for the weather conditions in past years. The results will help you decide how hot, cold, wet, or windy it might be!

Date:

Astronomy

Jan. 22, 2015 Rise Set
Actual Time 7:42 AM CST 5:27 PM CST
Civil Twilight 7:13 AM CST 5:57 PM CST
Nautical Twilight 6:39 AM CST 6:31 PM CST
Astronomical Twilight 6:06 AM CST 7:04 PM CST
Moon 8:54 AM CST (1/22) 8:30 PM CST (1/22)
Length of Visible Light 10h 44m
Length of Day
9h 44m
Waxing Crescent, 7% of the Moon is Illuminated
Jan 22
Waxing Crescent
Jan 26
First Quarter
Feb 3
Full
Feb 11
Last Quarter
Feb 18
New

Hourly Weather History & Observations

Time (CST) Temp. Windchill Dew Point Humidity Pressure Visibility Wind Dir Wind Speed Gust Speed Precip Events Conditions
12:58 AM 31.1 °F 26.4 °F 26.6 °F 83% 30.42 in 10.0 mi NW 4.6 mph - N/A   Overcast
1:56 AM 30.2 °F 25.4 °F 24.8 °F 80% 30.38 in 10.0 mi NNW 4.6 mph - N/A   Overcast
1:58 AM 30.2 °F 24.3 °F 25.2 °F 82% 30.41 in 10.0 mi NNW 5.8 mph - N/A   Overcast
2:06 AM 30.2 °F 24.3 °F 24.8 °F 80% 30.37 in 10.0 mi NNW 5.8 mph - N/A   Mostly Cloudy
2:54 AM 26.6 °F 20.0 °F 23.0 °F 86% 30.38 in 10.0 mi NNW 5.8 mph - N/A   Mostly Cloudy
2:58 AM 26.8 °F 20.2 °F 23.9 °F 89% 30.43 in 10.0 mi NNW 5.8 mph - N/A   Mostly Cloudy
3:58 AM 31.5 °F 28.1 °F 26.6 °F 82% 30.44 in 10.0 mi North 3.5 mph - N/A   Overcast
4:44 AM 32.0 °F 27.5 °F 24.8 °F 75% 30.42 in 10.0 mi North 4.6 mph - N/A   Overcast
4:47 AM 32.0 °F 26.4 °F 24.8 °F 75% 30.42 in 10.0 mi Variable 5.8 mph - N/A   Overcast
4:58 AM 31.5 °F 25.8 °F 25.0 °F 77% 30.48 in 10.0 mi North 5.8 mph - N/A   Overcast
5:58 AM 30.7 °F 24.9 °F 23.2 °F 74% 30.50 in 10.0 mi North 5.8 mph - N/A   Overcast
6:58 AM 30.7 °F 27.3 °F 21.9 °F 70% 30.52 in 10.0 mi North 3.5 mph - N/A   Overcast
7:58 AM 30.0 °F 26.5 °F 22.6 °F 74% 30.53 in 10.0 mi NW 3.5 mph - N/A   Overcast
8:58 AM 30.9 °F 26.2 °F 21.2 °F 67% 30.54 in 10.0 mi WNW 4.6 mph - N/A   Overcast
9:58 AM 31.8 °F 27.3 °F 21.2 °F 65% 30.53 in 10.0 mi NNW 4.6 mph - N/A   Overcast
10:27 AM 32.0 °F 26.4 °F 21.2 °F 64% 30.48 in 10.0 mi NW 5.8 mph - N/A   Overcast
10:36 AM 33.8 °F 28.6 °F 21.2 °F 60% 30.48 in 10.0 mi Variable 5.8 mph - N/A   Overcast
10:46 AM 35.6 °F 28.6 °F 21.2 °F 56% 30.48 in 10.0 mi WNW 9.2 mph - N/A   Mostly Cloudy
10:47 AM 35.6 °F 29.9 °F 21.2 °F 56% 30.48 in 10.0 mi WNW 6.9 mph - N/A   Mostly Cloudy
10:53 AM 35.6 °F 30.7 °F 21.2 °F 56% 30.48 in 10.0 mi WNW 5.8 mph - N/A   Mostly Cloudy
10:58 AM 35.1 °F 31.0 °F 21.0 °F 57% 30.53 in 10.0 mi NNW 4.6 mph - N/A   Mostly Cloudy
11:58 AM 35.4 °F 29.0 °F 20.7 °F 55% 30.52 in 10.0 mi WNW 8.1 mph - N/A   Partly Cloudy
12:58 PM 36.5 °F 31.8 °F 21.2 °F 54% 30.48 in 10.0 mi WSW 5.8 mph - N/A   Overcast
1:58 PM 37.8 °F 30.2 °F 21.2 °F 51% 30.45 in 10.0 mi SW 11.5 mph - N/A   Mostly Cloudy
2:58 PM 38.1 °F 31.7 °F 22.1 °F 53% 30.45 in 10.0 mi WSW 9.2 mph - N/A   Partly Cloudy
3:58 PM 37.4 °F 32.1 °F 22.8 °F 56% 30.43 in 10.0 mi SW 6.9 mph - N/A   Partly Cloudy
4:58 PM 35.6 °F 30.7 °F 23.0 °F 60% 30.42 in 10.0 mi WSW 5.8 mph - N/A   Clear
5:58 PM 33.3 °F 28.9 °F 22.5 °F 65% 30.41 in 10.0 mi SSW 4.6 mph - N/A   Clear
6:58 PM 29.8 °F 24.9 °F 22.1 °F 73% 30.42 in 10.0 mi South 4.6 mph - N/A   Clear
7:58 PM 25.7 °F 20.1 °F 20.7 °F 81% 30.42 in 10.0 mi SSE 4.6 mph - N/A   Clear
8:58 PM 20.3 °F - 17.4 °F 89% 30.42 in 10.0 mi Calm Calm - N/A   Clear
9:58 PM 19.6 °F - 17.1 °F 90% 30.40 in 10.0 mi South 1.2 mph - N/A   Clear
10:58 PM 24.6 °F - 19.6 °F 81% 30.38 in 10.0 mi South 2.3 mph - N/A   Clear
11:58 PM 24.3 °F - 19.6 °F 82% 30.37 in 10.0 mi South 2.3 mph - N/A   Clear